Voltar ao catálogo

STARLINK-35465

AtivoComunicaçõesVLEO
NORAD 65871·PAYLOAD·🇺🇸 United States

Lançado Oct 3, 2025 de Vandenberg Space Force Base

Loading…

Próximas Passagens (próximas 24 horas)

TLE

AtualizadoSource: CelesTrak SupGP

Época: Sep 14, 2026, 15:25 UTC

1 65871C 25223T   26257.64284722  .00036907  00000+0  10901-2 0  2572
2 65871  53.1569 134.8551 0001123 106.3009  69.5311 15.34383078    19

Acompanhe STARLINK-35465 em tempo real com AllMySat

Download on the App Store